This is the latest recevied weather packets stored in our database for station/object NA9VY-8. If no packets are shown the sender has not sent any weather packets the latest 10 day(s).
| Time | Temp. | Humidity | Pressure | Rain* | Wind** | Luminosity | Snow |
|---|---|---|---|---|---|---|---|
| 1777724966 | 5.56° C | 80% | 1025.6 hPa | 0 mm | - | 77 W/m² | - |
| 1777724360 | 5.56° C | 82% | 1025.6 hPa | 0 mm | - | 69 W/m² | - |
| 1777724056 | 5.56° C | 83% | 1025.4 hPa | 0 mm | - | 73 W/m² | - |
| 1777723754 | 5.56° C | 85% | 1025.6 hPa | 0 mm | - | 64 W/m² | - |
| 1777723450 | 5.56° C | 87% | 1025.5 hPa | 0 mm | - | 76 W/m² | - |
| 1777723148 | 5° C | 90% | 1025.5 hPa | 0 mm | - | 70 W/m² | - |
| 1777722845 | 4.44° C | 92% | 1025.3 hPa | 0 mm | - | 49 W/m² | - |
| 1777722540 | 4.44° C | 94% | 1025.3 hPa | 0 mm | - | 33 W/m² | - |
| 1777722238 | 4.44° C | 95% | 1025.3 hPa | 0 mm | - | 28 W/m² | - |
| 1777721935 | 4.44° C | 95% | 1025.3 hPa | 0 mm | - | 17 W/m² | - |
| 1777721632 | 3.89° C | 96% | 1025.1 hPa | 0 mm | - | 18 W/m² | - |
| 1777721330 | 3.89° C | 96% | 1024.9 hPa | 0 mm | - | 15 W/m² | - |
| 1777721028 | 3.89° C | 96% | 1024.8 hPa | 0 mm | - | 15 W/m² | - |
| 1777720725 | 3.89° C | 96% | 1024.8 hPa | 0 mm | - | 15 W/m² | - |
| 1777720422 | 3.89° C | 96% | 1024.8 hPa | 0 mm | - | 15 W/m² | - |
| 1777720120 | 3.89° C | 96% | 1024.8 hPa | 0 mm | - | 10 W/m² | - |
| 1777719817 | 3.33° C | 95% | 1024.5 hPa | 0 mm | - | 5 W/m² | - |
| 1777719515 | 3.33° C | 95% | 1024.4 hPa | 0 mm | - | 4 W/m² | - |
| 1777719212 | 3.33° C | 94% | 1024.4 hPa | 0 mm | - | 2 W/m² | - |
| 1777718909 | 3.33° C | 94% | 1024.3 hPa | 0 mm | - | 0 W/m² | - |
| 1777718607 | 3.89° C | 94% | 1024.4 hPa | 0 mm | - | 0 W/m² | - |
| 1777718304 | 3.89° C | 93% | 1024.6 hPa | 0 mm | - | 0 W/m² | - |
| 1777718001 | 3.89° C | 93% | 1024.7 hPa | 0 mm | - | 0 W/m² | - |
| 1777717698 | 3.89° C | 92% | 1024.5 hPa | 0 mm | - | 0 W/m² | - |
| 1777717394 | 3.89° C | 92% | 1024.3 hPa | 0 mm | - | 0 W/m² | - |
* Rain latest hour (hover to see other rain measurements)
** Current wind speed in m/s (hover to see current wind gust speed)